User: anonymous   Login
Location: *
(49.0044°N, 9.5056°E)
Time: 20:06:29
(UTC+00:00)
Language:

Cosmos 614 Rocket - Orbit

View from above orbital plane
View from above orbital plane
View from above satellite
View from above satellite

Ground track
Ground track

The orbit data is extracted from the following two-line orbital elements,

1  6966U 73098B   19322.74539181  .00000053  00000-0  23538-4 0  9992
2  6966  74.0578  21.1917 0020340 136.2195 224.0579 14.43011208413121
Epoch (UTC): 18 November 2019 17:53:21
Eccentricity: 0.0020340
inclination: 74.0578°
perigee height: 734 km
apogee height: 763 km
right ascension of ascending node: 21.1917°
argument of perigee: 136.2195°
revolutions per day: 14.43011208
mean anomaly at epoch: 224.0579°
orbit number at epoch: 41312

The dashed part of the orbit path shows where the satellite is in the earth's shadow,  

DLR